sat.trackr.live / text

‹ back to catalog

STARLINK-34333

NORAD 64264 · 2025-120J

PAYLOAD ACTIVE UNKNOWN

§ Identity

Operator
Country
US
Launch date
2025-06-04
Launch site
AFWTR
Launch vehicle
Mass (kg)
RCS (m²)

Purposes: comms

External: N2YO · Heavens-Above · Gunter

§ Orbital elements

Epoch: 2026-09-20T08:21:10.963584Z

Period
93.85 min
Inclination
53.1609°
Eccentricity
0.0001616
Mean motion
15.34406535 rev/d
Perigee alt
461.6 km
Apogee alt
463.8 km
Semi-major
6,840.8 km
B*
4.1265e-4
RAAN
286.5341°
Arg perigee
88.7472°
Mean anomaly
271.3716°
Rev number
7,375

§ Raw data

STARLINK-343331 64264U 25120J   26263.34804356  .00013594  00000+0  41265-3 0  99962 64264  53.1609 286.5341 0001616  88.7472 271.3716 15.34406535 73752

JSON: /api/v1/satellites/64264 · /tle

For live sub-satellite position, see the globe view (requires WebGL).

§ Visibility from observer

Set your observer location to see the next 7 days of passes ≥ 10°. The values pass through the URL so the page stays shareable.

No JS? Fill the form by hand. The geolocation button needs JavaScript.